軌道要素
Epoch 2021 July 5.0 TT = JDT 2459400.5
T 2021 Feb. 24.42890 TT Rudenko
q 4.8901940 (2000.0) P Q
n 0.03345394 Peri. 78.80448 -0.75705223 -0.55642651
a 9.5390379 Node 66.49367 +0.35064802 -0.78826516
e 0.4873494 Incl. 21.92686 +0.55128749 -0.26273100
P 29.5
From 54 observations 2021 Jan. 17-June 8, mean residual 0".5.
|